Climatologie pour Saint-Brevin les Pins
 
Jour • Résumé pour septembre 23, 2018 Système :  Métrique    Anglais   Mixte
« - 1 jour
+ 1 jour »
Jour Semaine Mois Année Personnalisé
  Actuellement : Maximum : Minimum : Moyenne :
Température sous abri : 17.9 °C 18.4 °C 17.9 °C 18.2 °C
Point de rosée : 17.6 °C 18.1 °C 17.6 °C 17.9 °C
Humidité : 98% 98% 98% 98%
Vitesse du vent : 3.2km/h 20.9km/h 0.0km/h 9.3km/h
Rafale : 16.1km/h 30.6km/h - -
Direction WSW - - WSW
Pression : 1018.0 hPa 1019.2 hPa 1018.0 hPa -
Précipitations : 0.3 mm      
Historical Graphs
 
 
Tableau de données pour septembre 23, 2018
Heure Tempé Pt rosée Pression Vent Vitesse Rafale Humidité Taux pluie (/hr) Soleil
00:00 18.3 °C 18.0 °C 1018.9 hPa WSW 9.7 km/h 22.5 km/h 98% 0.0 mm 0.00 W/m2
00:05 18.3 °C 18.0 °C 1018.9 hPa WSW 19.3 km/h 22.5 km/h 98% 0.0 mm 0.00 W/m2
00:10 18.3 °C 18.0 °C 1018.9 hPa SW 6.4 km/h 20.9 km/h 98% 0.0 mm 0.00 W/m2
00:15 18.3 °C 18.0 °C 1019.0 hPa WSW 8.0 km/h 20.9 km/h 98% 0.0 mm 0.00 W/m2
00:20 18.3 °C 18.0 °C 1019.1 hPa WSW 19.3 km/h 20.9 km/h 98% 0.0 mm 0.00 W/m2
00:25 18.3 °C 18.0 °C 1019.2 hPa West 9.7 km/h 20.9 km/h 98% 0.0 mm 0.00 W/m2
00:30 18.2 °C 17.9 °C 1019.2 hPa WSW 6.4 km/h 17.7 km/h 98% 0.0 mm 0.00 W/m2
00:35 18.2 °C 17.8 °C 1019.2 hPa West 4.8 km/h 20.9 km/h 98% 0.0 mm 0.00 W/m2
00:40 18.2 °C 17.8 °C 1019.1 hPa SW 11.3 km/h 20.9 km/h 98% 0.0 mm 0.00 W/m2
00:45 18.2 °C 17.8 °C 1019.1 hPa SW 6.4 km/h 20.9 km/h 98% 0.0 mm 0.00 W/m2
00:50 18.2 °C 17.9 °C 1019.1 hPa West 9.7 km/h 20.9 km/h 98% 0.0 mm 0.00 W/m2
00:55 18.2 °C 17.9 °C 1019.0 hPa WSW 9.7 km/h 20.9 km/h 98% 0.0 mm 0.00 W/m2
01:00 18.2 °C 17.9 °C 1019.1 hPa WSW 6.4 km/h 20.9 km/h 98% 0.0 mm 0.00 W/m2
01:05 18.3 °C 18.0 °C 1019.1 hPa WSW 1.6 km/h 24.1 km/h 98% 0.0 mm 0.00 W/m2
01:10 18.3 °C 18.0 °C 1019.2 hPa West 6.4 km/h 24.1 km/h 98% 0.0 mm 0.00 W/m2
01:15 18.3 °C 18.0 °C 1019.1 hPa WSW 3.2 km/h 25.7 km/h 98% 0.0 mm 0.00 W/m2
01:20 18.3 °C 18.0 °C 1019.1 hPa WSW 16.1 km/h 27.4 km/h 98% 0.0 mm 0.00 W/m2
01:25 18.3 °C 18.0 °C 1019.0 hPa Calm   27.4 km/h 98% 0.0 mm 0.00 W/m2
01:30 18.3 °C 18.0 °C 1019.1 hPa WSW 11.3 km/h 19.3 km/h 98% 0.0 mm 0.00 W/m2
01:35 18.3 °C 18.0 °C 1019.1 hPa WSW 11.3 km/h 29.0 km/h 98% 0.0 mm 0.00 W/m2
01:40 18.3 °C 18.0 °C 1019.1 hPa West 16.1 km/h 29.0 km/h 98% 0.0 mm 0.00 W/m2
01:45 18.3 °C 18.0 °C 1019.1 hPa West 8.0 km/h 19.3 km/h 98% 0.0 mm 0.00 W/m2
01:50 18.3 °C 18.0 °C 1019.1 hPa WSW 16.1 km/h 24.1 km/h 98% 0.0 mm 0.00 W/m2
01:55 18.3 °C 18.0 °C 1019.1 hPa WSW 8.0 km/h 24.1 km/h 98% 0.0 mm 0.00 W/m2
02:00 18.3 °C 18.0 °C 1019.1 hPa SW 9.7 km/h 22.5 km/h 98% 0.0 mm 0.00 W/m2
02:05 18.3 °C 18.0 °C 1019.1 hPa WSW 9.7 km/h 22.5 km/h 98% 0.0 mm 0.00 W/m2
02:10 18.3 °C 18.0 °C 1019.0 hPa WNW 16.1 km/h 22.5 km/h 98% 0.0 mm 0.00 W/m2
02:15 18.3 °C 18.0 °C 1019.0 hPa WSW 14.5 km/h 22.5 km/h 98% 0.0 mm 0.00 W/m2
02:20 18.3 °C 18.0 °C 1019.0 hPa WSW 17.7 km/h 24.1 km/h 98% 0.0 mm 0.00 W/m2
02:25 18.3 °C 18.0 °C 1019.0 hPa SW 12.9 km/h 24.1 km/h 98% 0.0 mm 0.00 W/m2
02:30 18.3 °C 18.0 °C 1019.0 hPa SW 14.5 km/h 24.1 km/h 98% 0.0 mm 0.00 W/m2
02:35 18.3 °C 18.0 °C 1018.9 hPa WSW 20.9 km/h 25.7 km/h 98% 0.0 mm 0.00 W/m2
02:40 18.3 °C 18.0 °C 1019.0 hPa SW 8.0 km/h 25.7 km/h 98% 0.0 mm 0.00 W/m2
02:45 18.4 °C 18.1 °C 1018.9 hPa WSW 3.2 km/h 24.1 km/h 98% 0.0 mm 0.00 W/m2
02:50 18.4 °C 18.1 °C 1019.0 hPa Calm   25.7 km/h 98% 0.0 mm 0.00 W/m2
02:55 18.3 °C 18.0 °C 1019.0 hPa WSW 8.0 km/h 30.6 km/h 98% 0.0 mm 0.00 W/m2
03:00 18.3 °C 18.0 °C 1018.9 hPa WSW 12.9 km/h 30.6 km/h 98% 0.0 mm 0.00 W/m2
03:05 18.3 °C 18.0 °C 1019.0 hPa WNW 12.9 km/h 24.1 km/h 98% 0.0 mm 0.00 W/m2
03:10 18.3 °C 18.0 °C 1018.9 hPa WSW 9.7 km/h 24.1 km/h 98% 0.0 mm 0.00 W/m2
03:15 18.3 °C 18.0 °C 1018.8 hPa WSW 12.9 km/h 25.7 km/h 98% 0.0 mm 0.00 W/m2
03:20 18.3 °C 18.0 °C 1018.8 hPa WSW 11.3 km/h 25.7 km/h 98% 0.0 mm 0.00 W/m2
03:25 18.3 °C 18.0 °C 1018.7 hPa SW 14.5 km/h 27.4 km/h 98% 0.0 mm 0.00 W/m2
03:30 18.3 °C 18.0 °C 1018.6 hPa Calm   27.4 km/h 98% 0.0 mm 0.00 W/m2
03:35 18.3 °C 18.0 °C 1018.6 hPa WSW 14.5 km/h 24.1 km/h 98% 0.0 mm 0.00 W/m2
03:40 18.3 °C 18.0 °C 1018.6 hPa WSW 9.7 km/h 24.1 km/h 98% 0.0 mm 0.00 W/m2
03:45 18.3 °C 18.0 °C 1018.5 hPa WNW 9.7 km/h 20.9 km/h 98% 0.0 mm 0.00 W/m2
03:50 18.3 °C 18.0 °C 1018.6 hPa WSW 4.8 km/h 25.7 km/h 98% 0.0 mm 0.00 W/m2
03:55 18.3 °C 18.0 °C 1018.7 hPa WSW 16.1 km/h 25.7 km/h 98% 0.0 mm 0.00 W/m2
04:00 18.2 °C 17.9 °C 1018.6 hPa West 9.7 km/h 17.7 km/h 98% 0.0 mm 0.00 W/m2
04:05 18.2 °C 17.9 °C 1018.7 hPa WNW 8.0 km/h 19.3 km/h 98% 0.0 mm 0.00 W/m2
04:10 18.2 °C 17.8 °C 1018.7 hPa WNW 11.3 km/h 22.5 km/h 98% 0.0 mm 0.00 W/m2
04:15 18.2 °C 17.8 °C 1018.6 hPa West 9.7 km/h 22.5 km/h 98% 0.0 mm 0.00 W/m2
04:20 18.2 °C 17.8 °C 1018.5 hPa WNW 19.3 km/h 22.5 km/h 98% 0.0 mm 0.00 W/m2
04:25 18.2 °C 17.8 °C 1018.5 hPa Calm   22.5 km/h 98% 0.0 mm 0.00 W/m2
04:30 18.1 °C 17.8 °C 1018.5 hPa WSW 14.5 km/h 20.9 km/h 98% 0.0 mm 0.00 W/m2
04:35 18.1 °C 17.8 °C 1018.4 hPa WSW 8.0 km/h 20.9 km/h 98% 0.0 mm 0.00 W/m2
04:40 18.1 °C 17.8 °C 1018.5 hPa WSW 9.7 km/h 19.3 km/h 98% 0.0 mm 0.00 W/m2
04:45 18.2 °C 17.8 °C 1018.5 hPa West 9.7 km/h 20.9 km/h 98% 0.0 mm 0.00 W/m2
04:50 18.2 °C 17.8 °C 1018.4 hPa WSW 11.3 km/h 20.9 km/h 98% 0.0 mm 0.00 W/m2
04:55 18.2 °C 17.8 °C 1018.4 hPa West 9.7 km/h 22.5 km/h 98% 0.0 mm 0.00 W/m2
05:00 18.1 °C 17.8 °C 1018.4 hPa WSW 12.9 km/h 22.5 km/h 98% 0.0 mm 0.00 W/m2
05:05 18.1 °C 17.8 °C 1018.4 hPa SW 3.2 km/h 20.9 km/h 98% 0.0 mm 0.00 W/m2
05:10 18.2 °C 17.8 °C 1018.3 hPa SW 11.3 km/h 19.3 km/h 98% 0.0 mm 0.00 W/m2
05:15 18.2 °C 17.8 °C 1018.3 hPa WSW 11.3 km/h 27.4 km/h 98% 0.0 mm 0.00 W/m2
05:20 18.2 °C 17.9 °C 1018.3 hPa SW 8.0 km/h 27.4 km/h 98% 0.0 mm 0.00 W/m2
05:25 18.2 °C 17.9 °C 1018.3 hPa WNW 6.4 km/h 20.9 km/h 98% 0.0 mm 0.00 W/m2
05:30 18.1 °C 17.8 °C 1018.2 hPa West 9.7 km/h 24.1 km/h 98% 0.0 mm 0.00 W/m2
05:35 18.2 °C 17.8 °C 1018.3 hPa WSW 8.0 km/h 24.1 km/h 98% 0.0 mm 0.00 W/m2
05:40 18.2 °C 17.8 °C 1018.2 hPa West 6.4 km/h 24.1 km/h 98% 0.0 mm 0.00 W/m2
05:45 18.2 °C 17.8 °C 1018.2 hPa West 8.0 km/h 24.1 km/h 98% 0.0 mm 0.00 W/m2
05:50 18.1 °C 17.8 °C 1018.1 hPa WSW 6.4 km/h 19.3 km/h 98% 0.0 mm 0.00 W/m2
05:55 18.0 °C 17.7 °C 1018.1 hPa WSW 11.3 km/h 22.5 km/h 98% 0.0 mm 0.00 W/m2
06:00 17.9 °C 17.6 °C 1018.1 hPa WSW 8.0 km/h 22.5 km/h 98% 0.0 mm 0.00 W/m2
06:05 17.9 °C 17.6 °C 1018.1 hPa West 6.4 km/h 17.7 km/h 98% 0.0 mm 0.00 W/m2
06:10 17.9 °C 17.6 °C 1018.1 hPa Calm   16.1 km/h 98% 0.0 mm 0.00 W/m2
06:15 17.9 °C 17.6 °C 1018.1 hPa SW 6.4 km/h 16.1 km/h 98% 0.0 mm 0.00 W/m2
06:20 17.9 °C 17.6 °C 1018.0 hPa WNW 1.6 km/h 16.1 km/h 98% 0.0 mm 0.00 W/m2
06:25 17.9 °C 17.6 °C 1018.0 hPa WSW 6.4 km/h 22.5 km/h 98% 0.3 mm 0.00 W/m2
06:30 18.0 °C 17.7 °C 1018.1 hPa WSW 12.9 km/h 22.5 km/h 98% 0.3 mm 0.00 W/m2
06:35 17.9 °C 17.6 °C 1018.1 hPa SW 6.4 km/h 19.3 km/h 98% 0.3 mm 0.00 W/m2
06:40 17.9 °C 17.6 °C 1018.0 hPa WSW 8.0 km/h 19.3 km/h 98% 0.3 mm 0.00 W/m2
06:45 17.9 °C 17.6 °C 1018.0 hPa West 3.2 km/h 19.3 km/h 98% 0.3 mm 0.00 W/m2
06:50 17.9 °C 17.6 °C 1018.0 hPa SW 4.8 km/h 16.1 km/h 98% 0.3 mm 0.00 W/m2
06:55 17.9 °C 17.6 °C 1018.0 hPa WSW 3.2 km/h 16.1 km/h 98% 0.3 mm 0.00 W/m2